Regional Weather Roundup
Issued by NWS

Home | Current Version | Previous Version | Text Only | Print | Product List | Glossary On
Versions: 1 2 3 4 5 6 7 8 9 10 11 12 13 14 15 16 17 18 19 20 21 22 23 24 25 26 27 28 29 30 31 32 33 34 35 36 37 38 39 40 41 42 43 44 45 46 47 48 49 50
000
ASUS43 KDTX 270401
RWRMI
MICHIGAN HOURLY REGIONAL WEATHER ROUNDUP
NATIONAL WEATHER SERVICE DETROIT/PONTIAC MI
1100 PM EST WED NOV 26 2014

NOTE: "FAIR" INDICATES FEW OR NO CLOUDS BELOW 12,000 FEET WITH NO
SIGNIFICANT WEATHER AND/OR OBSTRUCTION TO VISIBILITY.

MIZ047>049-052>055-059>063-066>070-074>076-081>083-270500-
SOUTHEAST LOWER MICHIGAN

CITY           SKY/WX    TMP DP  RH WIND       PRES   REMARKS
ADRIAN         CLOUDY    30  23  75 N7        30.09S WCI  23
ALMA           CLOUDY    28  24  84 CALM      30.13S
ANN ARBOR      CLOUDY    31  23  72 N8        30.08S WCI  23
BAD AXE        CLOUDY    29  28  95 NW7       30.09F WCI  22
CARO           CLOUDY    30  25  80 CALM      30.10S
DETROIT CITY   CLOUDY    33  23  66 N7        30.08F WCI  27
DETROIT        FLURRIES  32  23  69 N8        30.09S WCI  25
FLINT          CLOUDY    31  24  75 N6        30.11R WCI  25
GROSSE ILE     CLOUDY    34  27  75 N6        30.07S WCI  29
HILLSDALE      CLOUDY    29  26  88 N5        30.07S WCI  24
HOWELL         CLOUDY    28  25  86 N5        30.08S WCI  23

CITY           SKY/WX    TMP DP  RH WIND       PRES   REMARKS
JACKSON        CLOUDY    28  23  81 N7        30.09S WCI  21
LAMBERTVILLE   CLOUDY    32  28  86 CALM      30.09S
LANSING        LGT SNOW  29  22  75 N5        30.12R WCI  24
LAPEER         CLOUDY    29  24  82 CALM      30.09F
MASON          CLOUDY    29  24  81 N5        30.10S WCI  24
MONROE         CLOUDY    32  27  80 N3        30.07S
MT. CLEMENS    CLOUDY    32  27  80 N6        30.06F WCI  26
PONTIAC        FLURRIES  28  22  78 N7        30.07S WCI  21
PORT HOPE        N/A     32  27  81 NW8       30.07S WCI  25
PORT HURON     CLOUDY    30  27  86 NW3       30.09R
TRI CITIES     CLOUDY    30  22  72 W3        30.13R
TROY           CLOUDY    32  24  72 N5        30.10S WCI  28
SAGINAW HB     CLOUDY    30  27  86 W6        30.12R WCI  24
$$
MIZ043>046-050>051-056>058-064>065-071>073-077>080-270500-
SOUTHWEST LOWER MICHIGAN

CITY           SKY/WX    TMP DP  RH WIND       PRES   REMARKS
BATTLE CREEK   CLOUDY    29  21  72 N5        30.11S WCI  24
BENTON HARBOR  CLOUDY    26  23  88 CALM      30.15R
BIG RAPIDS     CLOUDY    27  26  95 CALM      30.11F
COLDWATER      CLOUDY    29  26  86 N3        30.10S
FREMONT        CLOUDY    28  26  94 NW3       30.14R
HOLLAND        CLOUDY    31  22  69 CALM      30.14S
GRAND RAPIDS   FLURRIES  29  21  72 N5        30.13S WCI  24
IONIA          CLOUDY    29  23  78 N7        30.12R WCI  22
KALAMAZOO      CLOUDY    28  21  75 N6        30.13R WCI  22
LUDINGTON      CLOUDY    29  28  96 CALM      30.15S FOG
MARSHALL       CLOUDY    27  22  80 CALM      30.10S
MOUNT PLEASANT CLOUDY    29  24  81 CALM      30.11S
MUSKEGON       CLOUDY    30  22  72 CALM      30.15R
SOUTH HAVEN    CLOUDY    29  26  87 CALM      30.14S
$$
MIZ016>042-270500-
NORTHERN LOWER MICHIGAN

CITY           SKY/WX    TMP DP  RH WIND       PRES   REMARKS
ALPENA         CLOUDY    26  23  88 NW5       30.10S WCI  20
BEAVER ISLAND  MOCLDY    28  23  82 CALM      30.12F
BELLAIRE       CLOUDY    27  25  95 CALM      30.13S
CADILLAC       CLOUDY    25  23  93 CALM      30.08S
CHARLEVOIX     CLOUDY    26  25  94 E3        30.14S
FRANKFORT      CLOUDY    29  24  83 NW5       30.14S WCI  24
GAYLORD        CLOUDY    24  20  84 W5        30.07F WCI  18
GRAYLING       CLOUDY    26  23  89 W5        30.10R WCI  20
HARBOR SPRINGS CLOUDY    26  24  91 CALM      30.11F
HOUGHTON LAKE  CLOUDY    24  21  88 W5        30.09S WCI  18
MANISTEE       CLOUDY    28  25  86 CALM      30.15S
OSCODA         CLOUDY    26  24  89 CALM      30.10R
PELLSTON       MOCLDY    27  21  78 W3        30.11F
ROGERS CITY    FLURRIES  27  25  93 W3        30.12S
TRAVERSE CITY  CLOUDY    28  24  85 SW3       30.12S
$$
MIZ007>008-015-270500-
EASTERN UPPER MICHIGAN

CITY           SKY/WX    TMP DP  RH WIND       PRES   REMARKS
KINROSS        CLOUDY    25  25 100 CALM      30.11S
MACKINAC ISLAN CLOUDY    27  26  93 N5        30.10F WCI  22
NEWBERRY       LGT SNOW  21  21  97 W3        30.11S
S. S. MARIE    CLOUDY    26  22  84 SE5       30.10F WCI  20
MUNISING         N/A     25  19  78 S5        30.13R WCI  19
$$
MIZ004>006-011>014-085-270500-
CENTRAL UPPER MICHIGAN

CITY           SKY/WX    TMP DP  RH WIND       PRES   REMARKS
MANISTIQUE     CLOUDY    15  15  97 CALM      30.13S
ESCANABA       MOCLDY    18  14  86 W3        30.14S
MENOMINEE      CLOUDY    21  18  86 CALM      30.16R
SAWYER-GWINN   LGT SNOW  23  20  89 N14       30.12R WCI  11
$$
MIZ001>003-009>011-084-270500-
WESTERN UPPER MICHIGAN

CITY           SKY/WX    TMP DP  RH WIND       PRES   REMARKS
IRON MOUNTAIN  CLOUDY    22  17  81 N10       30.13R WCI  11
HOUGHTON       LGT SNOW  15   9  76 N9        30.20R VSB 1   WCI   3
COPPER HARBOR    N/A     20  16  84 NE24G32   30.22S WCI   3
IRONWOOD       CLOUDY    18  14  86 N10       30.21S WCI   6
$$

ABBREVIATIONS USED IN REMARKS
   TC - TEMPERATURE IN CELSIUS
  WCI - WIND CHILL INDEX
   HX - HEAT INDEX
  VSB - VISIBILITY




USA.gov is the U.S. government's official web portal to all federal, state and local government web resources and services.